Regional Weather Roundup
Issued by NWS

Home | Current Version | Previous Version | Text Only | Print | Product List | Glossary Off
Versions: 1 2 3 4 5 6 7 8 9 10 11 12 13 14 15 16 17 18 19 20 21 22 23 24 25 26 27 28 29 30 31 32 33 34 35 36 37 38 39 40 41 42 43 44 45 46 47 48 49 50

000
ASUS43 KIND 202059
RWRIN

WEATHER ROUNDUP FOR INDIANA
NATIONAL WEATHER SERVICE INDIANAPOLIS IN
400 PM EST FRI JAN 20 2017

NOTE: "FAIR" INDICATES FEW OR NO CLOUDS BELOW 12,000 FEET WITH NO
SIGNIFICANT WEATHER AND/OR OBSTRUCTIONS TO VISIBILITY.

* - STATION DOES NOT REPORT WEATHER SUCH AS PRECIPITATION OR FOG.

+ - STATION NOT QUALITY CONTROLLED BY THE NATIONAL WEATHER SERVICE.
    USE DATA WITH CAUTION...ESPECIALLY DEWPOINT AND RELATIVE
    HUMIDITY OBSERVATIONS.

INZ001>003-010>013-019-020-202200-
NORTHWEST INDIANA

CITY           SKY/WX    TMP DP  RH WIND       PRES   REMARKS
GARY /AIRPORT/ CLOUDY    45  43  93 VRB5      29.64R FOG
MONTICELLO +   CLOUDY    49  46  89 S6        29.65R

$$

LMZ046-743>745-202200-
SOUTHERN LAKE MICHIGAN

STATION/POSITION TIME  TEMP    WIND        PRES    WAVE
                       AIR SEA DIR/SP/G            HT
                 (UTC) (F)     (DEG/KT/KT) (MB)    (FT)
BURNS HARBOR     2040   36      80/  7/  8 1004.1F
MICHIGAN CITY    2030   37      30/  4/  5   N/A

$$

INZ004-005-014>016-021>024-202200-
NORTH CENTRAL INDIANA

CITY           SKY/WX    TMP DP  RH WIND       PRES   REMARKS
ELKHART        FOG       41  39  93 CALM      29.64F VSB 3/4
GOSHEN         CLOUDY    44  41  89 SW5       29.65S FOG
PERU/GRISSOM   CLOUDY    50  50 100 W6        29.64S
SOUTH BEND     FOG       41  41 100 SW3       29.65S VSB 3/4

$$

INZ006>009-017-018-025>027-202200-
NORTHEAST INDIANA

CITY           SKY/WX    TMP DP  RH WIND       PRES   REMARKS
ANGOLA *+      CLOUDY    43  43 100 SW3       29.64R
FORT WAYNE     CLOUDY    51  46  83 SW12      29.67R
KENDALLVILLE + CLOUDY    44  44 100 W6        29.65S FOG

$$

INZ028-029-035-036-043>045-051>053-202200-
WEST CENTRAL INDIANA

CITY           SKY/WX    TMP DP  RH WIND       PRES   REMARKS
CRAWFORDSVL +  CLOUDY    49  49 100 SW7       29.66R
LAFAYETTE      CLOUDY    49  48  97 CALM      29.64S
TERRE HAUTE    CLOUDY    53  47  79 S5        29.65S

$$

INZ030>032-037>040-046>048-054>057-064-065-202200-
CENTRAL INDIANA

CITY           SKY/WX    TMP DP  RH WIND       PRES   REMARKS
ANDERSON       CLOUDY    54  48  82 S12       29.67F
COLUMBUS       PTSUNNY   55  50  82 SW14      29.69R
INDIANAPOLIS   CLOUDY    53  47  79 SW14      29.67R
-EAGLE CREEK   CLOUDY    54  47  77 S10       29.66R
KOKOMO +       CLOUDY    50  48  93 SW6       29.67R
MT COMFORT *+  PTSUNNY   55  48  76 SW13G18   29.67S
SHELBYVILLE    CLOUDY    56  48  74 SW10      29.68R

$$

INZ033-034-041-042-049-050-058-059-202200-
EAST CENTRAL INDIANA

CITY           SKY/WX    TMP DP  RH WIND       PRES   REMARKS
MUNCIE         CLOUDY    55  48  77 SW10      29.66S

$$

INZ060-061-067>069-081>083-085>088-202200-
SOUTHWEST INDIANA

CITY           SKY/WX    TMP DP  RH WIND       PRES   REMARKS
EVANSVILLE     CLOUDY    60  51  72 SW9       29.68R
HUNTINGBURG *+ CLOUDY    61  52  72 S10       29.69R

$$

INZ062-063-066-070>080-084-089>092-202200-
SOUTH CENTRAL AND SOUTHEAST INDIANA

CITY           SKY/WX    TMP DP  RH WIND       PRES   REMARKS
BLOOMINGTON    CLOUDY    55  47  74 S6        29.67S
MADISON *+     CLOUDY    59  48  67 SW12      29.72S
SEYMOUR +      CLOUDY    59  50  72 SW5       29.69S

$$





USA.gov is the U.S. government's official web portal to all federal, state and local government web resources and services.